Weather History for KFHR - October, 2013

Change the Weather History Date:

Monday, October 14, 2013

  Actual Average Record
Temperature  
Mean Temperature 47 °F -  
Max Temperature 57 °F 56 °F 66 °F (2004)
Min Temperature 39 °F 42 °F 35 °F (2002)
Degree Days  
Heating Degree Days 18    
Moisture  
Dew Point 43 °F    
Average Humidity 87    
Maximum Humidity 100    
Minimum Humidity 67    
Precipitation  
Precipitation 0.00 in - - ()
Sea Level Pressure  
Sea Level Pressure 30.42 in    
Wind  
Wind Speed 1 mph (North)    
Max Wind Speed 10 mph    
Max Gust Speed -    
Visibility 7 miles    
Events      
Averages and records for this station are not official NWS values.
T = Trace of Precipitation, MM = Missing Value Source: NWS Daily Summary

Daily Weather History Graph

Daily Weather History Graph

Search for Another Location

Airport or City:

Trip Planner

Search our weather history database for the weather conditions in past years. The results will help you decide how hot, cold, wet, or windy it might be!

Date:

Astronomy

Oct. 14, 2013 Rise Set
Actual Time 7:31 AM PDT 6:24 PM PDT
Civil Twilight 6:59 AM PDT 6:55 PM PDT
Nautical Twilight 6:23 AM PDT 7:31 PM PDT
Astronomical Twilight 5:46 AM PDT 8:08 PM PDT
Moon 4:14 PM PDT (10/14) 2:33 AM PDT (10/14)
Length of Visible Light 11h 56m
Length of Day
10h 52m
Waxing Gibbous, 80% of the Moon is Illuminated
Oct 14
Waxing Gibbous
Oct 18
Full
Oct 26
Last Quarter
Nov 3
New
Nov 9
First Quarter

Hourly Weather History & Observations

Time (PDT) Temp. Windchill Dew Point Humidity Pressure Visibility Wind Dir Wind Speed Gust Speed Precip Events Conditions
12:53 AM 39.9 °F - 39.0 °F 97% 30.39 in 4.0 mi Calm Calm - N/A   Clear
1:53 AM 39.9 °F - 39.0 °F 97% 30.40 in 6.0 mi Calm Calm - N/A   Clear
2:53 AM 39.9 °F - 39.0 °F 97% 30.40 in 6.0 mi Calm Calm - N/A   Clear
3:49 AM 39.2 °F - 37.4 °F 93% 30.39 in 2.5 mi Calm Calm - N/A   Clear
3:53 AM 39.0 °F - 37.9 °F 96% 30.40 in 2.5 mi Calm Calm - N/A   Clear
4:04 AM 39.2 °F - 37.4 °F 93% 30.40 in 1.8 mi Calm Calm - N/A   Clear
4:08 AM 42.8 °F 41.1 °F 39.2 °F 87% 30.40 in 3.0 mi WNW 3.5 mph - N/A   Clear
4:36 AM 42.8 °F - 42.8 °F 100% 30.40 in 4.0 mi Calm Calm - N/A   Scattered Clouds
4:46 AM 44.6 °F - 41.0 °F 87% 30.40 in 6.0 mi Calm Calm - N/A   Mostly Cloudy
4:53 AM 44.1 °F - 43.0 °F 96% 30.40 in 6.0 mi Calm Calm - N/A   Mostly Cloudy
5:53 AM 46.9 °F - 45.0 °F 93% 30.41 in 7.0 mi Calm Calm - N/A   Mostly Cloudy
6:09 AM 44.6 °F - 44.6 °F 100% 30.41 in 7.0 mi Calm Calm - N/A   Partly Cloudy
6:53 AM 46.0 °F - 45.0 °F 96% 30.43 in 7.0 mi Calm Calm - N/A   Clear
7:53 AM 43.0 °F - 42.1 °F 97% 30.43 in 4.0 mi Calm Calm - N/A   Clear
8:07 AM 44.6 °F - 42.8 °F 93% 30.43 in 2.5 mi Calm Calm - N/A   Clear
8:15 AM 44.6 °F - 42.8 °F 93% 30.43 in 3.0 mi Calm Calm - N/A   Clear
8:53 AM 48.0 °F - 46.0 °F 93% 30.44 in 6.0 mi Calm Calm - N/A   Clear
9:53 AM 51.1 °F - 46.0 °F 83% 30.45 in 8.0 mi North 8.1 mph - N/A   Clear
10:53 AM 52.0 °F - 45.0 °F 77% 30.46 in 8.0 mi North 8.1 mph - N/A   Partly Cloudy
11:10 AM 51.8 °F - 44.6 °F 76% 30.46 in 7.0 mi NNW 4.6 mph - N/A   Mostly Cloudy
11:53 AM 54.0 °F - 46.0 °F 75% 30.46 in 10.0 mi North 5.8 mph - N/A   Overcast
12:43 PM 55.4 °F - 46.4 °F 72% 30.45 in 10.0 mi North 10.4 mph - N/A   Scattered Clouds
12:53 PM 55.0 °F - 46.0 °F 72% 30.45 in 10.0 mi North 9.2 mph - N/A   Partly Cloudy
1:53 PM 55.9 °F - 46.0 °F 69% 30.43 in 10.0 mi North 6.9 mph - N/A   Clear
2:53 PM 55.9 °F - 46.0 °F 69% 30.42 in 10.0 mi North 9.2 mph - N/A   Clear
3:53 PM 55.9 °F - 45.0 °F 67% 30.41 in 10.0 mi Variable 6.9 mph - N/A   Clear
4:53 PM 55.0 °F - 44.1 °F 67% 30.40 in 10.0 mi Variable 3.5 mph - N/A   Clear
5:53 PM 52.0 °F - 44.1 °F 74% 30.40 in 10.0 mi Calm Calm - N/A   Clear
6:53 PM 46.0 °F - 43.0 °F 89% 30.40 in 10.0 mi Calm Calm - N/A   Clear
7:53 PM 46.9 °F - 42.1 °F 83% 30.40 in 10.0 mi Calm Calm - N/A   Clear
8:53 PM 46.9 °F - 42.1 °F 83% 30.40 in 10.0 mi Calm Calm - N/A   Clear
9:53 PM 42.1 °F - 39.9 °F 92% 30.41 in 10.0 mi Calm Calm - N/A   Clear
10:53 PM 42.1 °F - 39.9 °F 92% 30.41 in 10.0 mi Calm Calm - N/A   Clear
11:53 PM 41.0 °F - 39.9 °F 96% 30.41 in 8.0 mi Calm Calm - N/A   Clear